Tracking 29892 objects as of 21-Nov-2024
HD Live streaming from Space Station
objects crossing your sky now

STARLINK-4269

Track STARLINK-4269 now!
10-day predictions
STARLINK-4269 is classified as:


NORAD ID: 52992
Int'l Code: 2022-076G
Perigee: 546.2 km
Apogee: 547.6 km
Inclination: 53.2 °
Period: 95.4 minutes
Semi major axis: 6917 km
RCS: Unknown
Launch date: July 7, 2022
Source: United States (US)
Launch site: AIR FORCE EASTERN TEST RANGE (AFETR)
Your satellite tracking list
Your tracking list is empty




NASA's NSSDC Master Catalog

Two Line Element Set (TLE):
1 52992U 22076G   24324.59722282  .00001202  00000-0  93586-4 0  9996
2 52992  53.2156  76.9006 0001023  88.4002 271.7107 15.08846894130986
Source of the keplerian elements: AFSPC